date,time,SUV Intensity [MED/Hr],UV Index,Daily total [MED],Since Last [MED]
15/07/2022,00:54:54,0.000,0.0,0.0,0.0
15/07/2022,00:56:34,0.000,0.0,0.0,0.0
15/07/2022,00:57:25,0.000,0.0,0.0,0.0
15/07/2022,00:58:33,0.001,0.0,0.0,0.0
15/07/2022,01:00:26,0.000,0.0,0.0,0.0
15/07/2022,01:01:25,0.001,0.0,0.0,0.0
15/07/2022,01:02:24,0.000,0.0,0.0,0.0
15/07/2022,01:03:24,0.000,0.0,0.0,0.0
15/07/2022,01:04:25,0.000,0.0,0.0,0.0
15/07/2022,01:05:26,0.000,0.0,0.0,0.0
15/07/2022,01:06:25,0.002,0.0,0.0,0.0
15/07/2022,01:07:24,0.001,0.0,0.0,0.0
15/07/2022,01:08:25,0.001,0.0,0.0,0.0
15/07/2022,01:09:25,0.001,0.0,0.0,0.0
15/07/2022,01:10:24,0.001,0.0,0.0,0.0
15/07/2022,01:11:24,0.000,0.0,0.0,0.0
15/07/2022,01:12:24,0.000,0.0,0.0,0.0
15/07/2022,01:13:33,-0.001,0.0,0.0,0.0
15/07/2022,01:14:24,0.001,0.0,0.0,0.0
15/07/2022,01:15:25,0.002,0.0,0.0,0.0
15/07/2022,01:16:25,-0.000,0.0,0.0,0.0
15/07/2022,01:17:25,0.002,0.0,0.0,0.0
15/07/2022,01:18:24,-0.000,0.0,0.0,0.0
15/07/2022,01:19:24,0.001,0.0,0.0,0.0
15/07/2022,01:20:25,0.000,0.0,0.0,0.0
15/07/2022,01:21:25,0.001,0.0,0.0,0.0
15/07/2022,01:22:25,0.000,0.0,0.0,0.0
15/07/2022,01:23:25,-0.001,0.0,0.0,0.0
15/07/2022,01:24:25,-0.001,0.0,0.0,0.0
15/07/2022,01:25:25,0.000,0.0,0.0,0.0
15/07/2022,01:26:24,-0.001,0.0,0.0,0.0
15/07/2022,01:27:24,0.000,0.0,0.0,0.0
15/07/2022,01:28:33,0.000,0.0,0.0,0.0
15/07/2022,01:29:24,0.001,0.0,0.0,0.0
15/07/2022,01:30:24,0.001,0.0,0.0,0.0
15/07/2022,01:31:25,0.000,0.0,0.0,0.0
15/07/2022,01:32:25,0.000,0.0,0.0,0.0
15/07/2022,01:33:24,-0.000,0.0,0.0,0.0
15/07/2022,01:34:33,-0.000,0.0,0.0,0.0
15/07/2022,01:35:24,0.000,0.0,0.0,0.0
15/07/2022,01:36:25,0.000,0.0,0.0,0.0
15/07/2022,01:37:24,0.002,0.0,0.0,0.0
15/07/2022,01:38:24,-0.000,0.0,0.0,0.0
15/07/2022,01:39:25,0.000,0.0,0.0,0.0
15/07/2022,01:40:25,0.000,0.0,0.0,0.0
15/07/2022,01:41:25,-0.000,0.0,0.0,0.0
15/07/2022,01:42:25,0.000,0.0,0.0,0.0
15/07/2022,01:43:25,-0.001,0.0,0.0,0.0
15/07/2022,01:44:25,0.000,0.0,0.0,0.0
15/07/2022,01:45:25,0.001,0.0,0.0,0.0
15/07/2022,01:46:25,0.000,0.0,0.0,0.0
15/07/2022,01:47:25,-0.001,0.0,0.0,0.0
15/07/2022,01:48:25,0.000,0.0,0.0,0.0
15/07/2022,01:49:33,0.000,0.0,0.0,0.0
15/07/2022,01:50:25,0.000,0.0,0.0,0.0
15/07/2022,01:51:25,0.001,0.0,0.0,0.0
15/07/2022,01:52:25,0.000,0.0,0.0,0.0
15/07/2022,01:53:25,0.000,0.0,0.0,0.0
15/07/2022,01:54:24,0.000,0.0,0.0,0.0
15/07/2022,01:55:25,-0.001,0.0,0.0,0.0
15/07/2022,01:56:26,-0.000,0.0,0.0,0.0
15/07/2022,01:57:25,0.000,0.0,0.0,0.0
15/07/2022,01:58:24,0.000,0.0,0.0,0.0
15/07/2022,01:59:25,0.000,0.0,0.0,0.0
15/07/2022,02:00:25,0.000,0.0,0.0,0.0
15/07/2022,02:01:25,0.000,0.0,0.0,0.0
15/07/2022,02:02:24,0.000,0.0,0.0,0.0
15/07/2022,02:03:24,-0.000,0.0,0.0,0.0
15/07/2022,02:04:24,0.001,0.0,0.0,0.0
15/07/2022,02:05:25,0.000,0.0,0.0,0.0
15/07/2022,02:06:25,0.000,0.0,0.0,0.0
15/07/2022,02:07:24,0.000,0.0,0.0,0.0
15/07/2022,02:08:24,0.000,0.0,0.0,0.0
15/07/2022,02:09:25,0.001,0.0,0.0,0.0
15/07/2022,02:10:33,0.000,0.0,0.0,0.0
15/07/2022,02:11:24,0.000,0.0,0.0,0.0
15/07/2022,02:12:24,0.000,0.0,0.0,0.0
15/07/2022,02:13:33,0.000,0.0,0.0,0.0
15/07/2022,02:14:24,0.000,0.0,0.0,0.0
15/07/2022,02:15:25,-0.000,0.0,0.0,0.0
15/07/2022,02:16:24,0.001,0.0,0.0,0.0
15/07/2022,02:17:24,0.000,0.0,0.0,0.0
15/07/2022,02:18:24,0.000,0.0,0.0,0.0
15/07/2022,02:19:25,0.001,0.0,0.0,0.0
15/07/2022,02:20:24,0.000,0.0,0.0,0.0
15/07/2022,02:21:24,0.000,0.0,0.0,0.0
15/07/2022,02:22:25,0.001,0.0,0.0,0.0
15/07/2022,02:23:25,0.000,0.0,0.0,0.0
15/07/2022,02:24:24,-0.001,0.0,0.0,0.0
15/07/2022,02:25:33,0.001,0.0,0.0,0.0
15/07/2022,02:26:25,0.000,0.0,0.0,0.0
15/07/2022,02:27:25,0.000,0.0,0.0,0.0
15/07/2022,02:28:25,0.001,0.0,0.0,0.0
15/07/2022,02:29:24,0.001,0.0,0.0,0.0
15/07/2022,02:30:25,0.002,0.0,0.0,0.0
15/07/2022,02:31:33,-0.000,0.0,0.0,0.0
15/07/2022,02:32:25,0.000,0.0,0.0,0.0
15/07/2022,02:33:26,0.001,0.0,0.0,0.0
15/07/2022,02:34:24,0.001,0.0,0.0,0.0
15/07/2022,02:35:25,0.001,0.0,0.0,0.0
15/07/2022,02:36:24,-0.000,0.0,0.0,0.0
15/07/2022,02:37:25,0.000,0.0,0.0,0.0
15/07/2022,02:38:24,0.000,0.0,0.0,0.0
15/07/2022,02:39:24,0.000,0.0,0.0,0.0
15/07/2022,02:40:25,0.000,0.0,0.0,0.0
15/07/2022,02:41:33,0.001,0.0,0.0,0.0
15/07/2022,02:42:25,-0.000,0.0,0.0,0.0
15/07/2022,02:43:25,0.001,0.0,0.0,0.0
15/07/2022,02:44:33,0.000,0.0,0.0,0.0
15/07/2022,02:45:25,0.000,0.0,0.0,0.0
15/07/2022,02:46:25,0.001,0.0,0.0,0.0
15/07/2022,02:47:25,-0.000,0.0,0.0,0.0
15/07/2022,02:48:25,0.000,0.0,0.0,0.0
15/07/2022,02:49:25,0.000,0.0,0.0,0.0
15/07/2022,02:50:24,0.001,0.0,0.0,0.0
15/07/2022,02:51:24,0.000,0.0,0.0,0.0
15/07/2022,02:52:25,0.000,0.0,0.0,0.0
15/07/2022,02:53:24,0.001,0.0,0.0,0.0
15/07/2022,02:54:25,0.001,0.0,0.0,0.0
15/07/2022,02:55:24,0.001,0.0,0.0,0.0
15/07/2022,02:56:24,0.000,0.0,0.0,0.0
15/07/2022,02:57:26,0.000,0.0,0.0,0.0
15/07/2022,02:58:25,0.000,0.0,0.0,0.0
15/07/2022,02:59:33,0.000,0.0,0.0,0.0
15/07/2022,03:00:25,0.000,0.0,0.0,0.0
15/07/2022,03:01:26,0.000,0.0,0.0,0.0
15/07/2022,03:02:33,0.000,0.0,0.0,0.0
15/07/2022,03:03:25,-0.001,0.0,0.0,0.0
15/07/2022,03:04:24,0.001,0.0,0.0,0.0
15/07/2022,03:05:33,0.001,0.0,0.0,0.0
15/07/2022,03:06:25,0.001,0.0,0.0,0.0
15/07/2022,03:07:25,0.001,0.0,0.0,0.0
15/07/2022,03:08:25,0.001,0.0,0.0,0.0
15/07/2022,03:09:25,0.000,0.0,0.0,0.0
15/07/2022,03:10:26,0.001,0.0,0.0,0.0
15/07/2022,03:11:25,0.000,0.0,0.0,0.0
15/07/2022,03:12:25,-0.000,0.0,0.0,0.0
15/07/2022,03:13:24,0.001,0.0,0.0,0.0
15/07/2022,03:14:24,0.001,0.0,0.0,0.0
15/07/2022,03:15:33,0.000,0.0,0.0,0.0
15/07/2022,03:16:24,0.000,0.0,0.0,0.0
15/07/2022,03:17:24,0.001,0.0,0.0,0.0
15/07/2022,03:18:25,0.002,0.0,0.0,0.0
15/07/2022,03:19:25,0.000,0.0,0.0,0.0
15/07/2022,03:20:24,-0.000,0.0,0.0,0.0
15/07/2022,03:21:49,0.001,0.0,0.0,0.0
15/07/2022,03:23:16,0.001,0.0,0.0,0.0
15/07/2022,03:24:26,0.000,0.0,0.0,0.0
15/07/2022,03:25:32,0.000,0.0,0.0,0.0
15/07/2022,03:26:24,0.001,0.0,0.0,0.0
15/07/2022,03:27:25,0.000,0.0,0.0,0.0
15/07/2022,03:28:34,-0.000,0.0,0.0,0.0
15/07/2022,03:29:25,-0.000,0.0,0.0,0.0
15/07/2022,03:30:24,0.001,0.0,0.0,0.0
15/07/2022,03:31:25,0.001,0.0,0.0,0.0
15/07/2022,03:32:25,0.000,0.0,0.0,0.0
15/07/2022,03:33:25,0.000,0.0,0.0,0.0
15/07/2022,03:34:33,0.001,0.0,0.0,0.0
15/07/2022,03:35:25,0.001,0.0,0.0,0.0
15/07/2022,03:36:25,0.001,0.0,0.0,0.0
15/07/2022,03:37:25,-0.000,0.0,0.0,0.0
15/07/2022,03:38:32,0.001,0.0,0.0,0.0
15/07/2022,03:39:24,0.001,0.0,0.0,0.0
15/07/2022,03:40:26,0.000,0.0,0.0,0.0
15/07/2022,03:41:24,0.000,0.0,0.0,0.0
15/07/2022,03:42:25,0.000,0.0,0.0,0.0
15/07/2022,03:43:24,0.001,0.0,0.0,0.0
15/07/2022,03:44:33,-0.000,0.0,0.0,0.0
15/07/2022,03:45:25,0.001,0.0,0.0,0.0
15/07/2022,03:46:33,-0.000,0.0,0.0,0.0
15/07/2022,03:47:23,0.001,0.0,0.0,0.0
15/07/2022,03:48:24,0.001,0.0,0.0,0.0
15/07/2022,03:49:37,0.002,0.0,0.0,0.0
15/07/2022,03:51:25,0.001,0.0,0.0,0.0
15/07/2022,03:52:25,0.001,0.0,0.0,0.0
15/07/2022,03:53:25,0.001,0.0,0.0,0.0
15/07/2022,03:54:25,0.001,0.0,0.0,0.0
15/07/2022,03:55:24,0.001,0.0,0.0,0.0
15/07/2022,03:56:25,0.001,0.0,0.0,0.0
15/07/2022,03:57:34,0.001,0.0,0.0,0.0
15/07/2022,03:58:24,0.002,0.0,0.0,0.0
15/07/2022,03:59:33,0.001,0.0,0.0,0.0
15/07/2022,04:00:25,0.002,0.0,0.0,0.0
15/07/2022,04:01:25,0.002,0.0,0.0,0.0
15/07/2022,04:02:25,0.001,0.0,0.0,0.0
15/07/2022,04:03:25,0.002,0.0,0.0,0.0
15/07/2022,04:04:24,0.001,0.0,0.0,0.0
15/07/2022,04:05:25,0.001,0.0,0.0,0.0
15/07/2022,04:06:25,0.002,0.0,0.0,0.0
15/07/2022,04:07:24,0.003,0.0,0.0,0.0
15/07/2022,04:08:25,0.003,0.0,0.0,0.0
15/07/2022,04:09:25,0.002,0.0,0.0,0.0
15/07/2022,04:10:25,0.002,0.0,0.0,0.0
15/07/2022,04:11:25,0.003,0.0,0.0,0.0
15/07/2022,04:12:33,0.003,0.0,0.0,0.0
15/07/2022,04:13:25,0.003,0.0,0.0,0.0
15/07/2022,04:14:24,0.003,0.0,0.0,0.0
15/07/2022,04:15:25,0.003,0.0,0.0,0.0
15/07/2022,04:16:27,0.003,0.0,0.0,0.0
15/07/2022,04:17:24,0.004,0.0,0.0,0.0
15/07/2022,04:18:25,0.004,0.0,0.0,0.0
15/07/2022,04:19:25,0.004,0.0,0.0,0.0
15/07/2022,04:20:24,0.003,0.0,0.0,0.0
15/07/2022,04:21:25,0.004,0.0,0.0,0.0
15/07/2022,04:22:24,0.004,0.0,0.0,0.0
15/07/2022,04:23:25,0.004,0.0,0.0,0.0
15/07/2022,04:24:24,0.005,0.0,0.0,0.0
15/07/2022,04:25:33,0.005,0.0,0.0,0.0
15/07/2022,04:26:24,0.005,0.0,0.0,0.0
15/07/2022,04:27:24,0.005,0.0,0.0,0.0
15/07/2022,04:28:25,0.006,0.0,0.0,0.0
15/07/2022,04:29:25,0.005,0.0,0.0,0.0
15/07/2022,04:30:25,0.006,0.0,0.0,0.0
15/07/2022,04:31:25,0.007,0.0,0.0,0.0
15/07/2022,04:32:25,0.008,0.0,0.0,0.0
15/07/2022,04:33:26,0.007,0.0,0.0,0.0
15/07/2022,04:34:24,0.007,0.0,0.0,0.0
15/07/2022,04:35:33,0.007,0.0,0.001,0.001
15/07/2022,04:36:27,0.008,0.0,0.001,0.0
15/07/2022,04:37:17,0.008,0.0,0.001,0.0
15/07/2022,04:38:26,0.007,0.0,0.001,0.0
15/07/2022,04:39:25,0.010,0.0,0.001,0.0
15/07/2022,04:40:25,0.010,0.0,0.001,0.0
15/07/2022,04:41:33,0.010,0.0,0.001,0.0
15/07/2022,04:42:25,0.011,0.0,0.002,0.001
15/07/2022,04:43:25,0.009,0.0,0.002,0.0
15/07/2022,04:44:25,0.010,0.0,0.002,0.0
15/07/2022,04:45:25,0.011,0.0,0.002,0.0
15/07/2022,04:46:25,0.011,0.0,0.002,0.0
15/07/2022,04:47:25,0.011,0.0,0.002,0.0
15/07/2022,04:48:25,0.012,0.0,0.003,0.001
15/07/2022,04:49:24,0.012,0.0,0.003,0.0
15/07/2022,04:50:25,0.013,0.0,0.003,0.0
15/07/2022,04:51:33,0.014,0.0,0.003,0.0
15/07/2022,04:52:25,0.014,0.0,0.003,0.0
15/07/2022,04:53:25,0.014,0.0,0.004,0.001
15/07/2022,04:54:35,0.015,0.0,0.004,0.0
15/07/2022,04:56:26,0.016,0.0,0.004,0.0
15/07/2022,04:57:25,0.016,0.0,0.005,0.001
15/07/2022,04:58:25,0.017,0.0,0.005,0.0
15/07/2022,04:59:24,0.017,0.0,0.005,0.0
15/07/2022,05:00:25,0.019,0.0,0.006,0.001
15/07/2022,05:01:25,0.019,0.0,0.006,0.0
15/07/2022,05:02:25,0.019,0.0,0.006,0.0
15/07/2022,05:03:25,0.020,0.0,0.006,0.0
15/07/2022,05:04:33,0.020,0.0,0.007,0.001
15/07/2022,05:05:23,0.021,0.0,0.007,0.0
15/07/2022,05:06:25,0.021,0.0,0.007,0.0
15/07/2022,05:07:25,0.023,0.0,0.008,0.001
15/07/2022,05:08:24,0.022,0.0,0.008,0.0
15/07/2022,05:09:25,0.024,0.0,0.009,0.001
15/07/2022,05:10:25,0.024,0.0,0.009,0.0
15/07/2022,05:11:25,0.025,0.0,0.009,0.0
15/07/2022,05:12:25,0.026,0.0,0.01,0.001
15/07/2022,05:13:25,0.026,0.0,0.01,0.0
15/07/2022,05:14:25,0.027,0.0,0.011,0.001
15/07/2022,05:15:25,0.028,0.0,0.011,0.0
15/07/2022,05:16:25,0.029,0.0,0.012,0.001
15/07/2022,05:17:33,0.031,0.0,0.012,0.0
15/07/2022,05:18:25,0.030,0.0,0.013,0.001
15/07/2022,05:19:25,0.031,0.0,0.013,0.0
15/07/2022,05:20:33,0.032,0.0,0.014,0.001
15/07/2022,05:21:25,0.033,0.0,0.014,0.0
15/07/2022,05:22:25,0.034,0.0,0.015,0.001
15/07/2022,05:23:25,0.035,0.0,0.015,0.0
15/07/2022,05:24:25,0.036,0.0,0.016,0.001
15/07/2022,05:25:25,0.037,0.0,0.017,0.001
15/07/2022,05:26:25,0.038,0.0,0.017,0.0
15/07/2022,05:27:33,0.040,0.0,0.018,0.001
15/07/2022,05:28:25,0.041,0.0,0.019,0.001
15/07/2022,05:29:25,0.043,0.0,0.019,0.0
15/07/2022,05:30:58,0.043,0.0,0.02,0.001
15/07/2022,05:32:25,0.045,0.0,0.021,0.001
15/07/2022,05:33:26,0.046,0.0,0.022,0.001
15/07/2022,05:34:25,0.049,0.0,0.023,0.001
15/07/2022,05:35:25,0.049,0.0,0.024,0.001
15/07/2022,05:36:25,0.049,0.0,0.025,0.001
15/07/2022,05:37:25,0.050,0.0,0.025,0.0
15/07/2022,05:38:25,0.052,0.0,0.026,0.001
15/07/2022,05:39:25,0.054,0.0,0.027,0.001
15/07/2022,05:40:33,0.055,0.0,0.028,0.001
15/07/2022,05:41:25,0.056,0.0,0.029,0.001
15/07/2022,05:42:25,0.058,0.0,0.03,0.001
15/07/2022,05:43:25,0.059,0.0,0.031,0.001
15/07/2022,05:44:25,0.061,0.0,0.032,0.001
15/07/2022,05:45:41,0.062,0.0,0.033,0.001
15/07/2022,05:47:26,0.066,0.0,0.035,0.002
15/07/2022,05:48:25,0.066,0.0,0.036,0.001
15/07/2022,05:49:25,0.068,0.0,0.037,0.001
15/07/2022,05:50:25,0.070,0.0,0.038,0.001
15/07/2022,05:51:25,0.072,0.0,0.04,0.002
15/07/2022,05:52:25,0.074,0.0,0.041,0.001
15/07/2022,05:53:25,0.075,0.0,0.042,0.001
15/07/2022,05:54:25,0.077,0.0,0.043,0.001
15/07/2022,05:55:25,0.079,0.0,0.045,0.002
15/07/2022,05:56:25,0.080,0.0,0.046,0.001
15/07/2022,05:57:25,0.081,0.0,0.047,0.001
15/07/2022,05:58:25,0.084,0.0,0.049,0.002
15/07/2022,05:59:33,0.083,0.0,0.05,0.001
15/07/2022,06:00:25,0.086,0.0,0.051,0.001
15/07/2022,06:01:25,0.086,0.0,0.053,0.002
15/07/2022,06:02:25,0.088,0.0,0.054,0.001
15/07/2022,06:03:25,0.090,0.0,0.056,0.002
15/07/2022,06:04:25,0.093,0.0,0.057,0.001
15/07/2022,06:05:25,0.096,0.0,0.059,0.002
15/07/2022,06:06:25,0.100,0.0,0.061,0.002
15/07/2022,06:07:25,0.102,0.0,0.062,0.001
15/07/2022,06:08:26,0.104,0.0,0.064,0.002
15/07/2022,06:09:33,0.107,0.0,0.066,0.002
15/07/2022,06:10:24,0.110,0.0,0.068,0.002
15/07/2022,06:11:25,0.112,0.0,0.069,0.001
15/07/2022,06:12:25,0.115,0.0,0.071,0.002
15/07/2022,06:13:26,0.116,0.0,0.073,0.002
15/07/2022,06:14:25,0.119,0.0,0.075,0.002
15/07/2022,06:15:34,0.122,0.0,0.077,0.002
15/07/2022,06:16:25,0.124,0.0,0.079,0.002
15/07/2022,06:17:25,0.127,0.0,0.081,0.002
15/07/2022,06:18:25,0.130,0.0,0.083,0.002
15/07/2022,06:19:25,0.132,0.0,0.086,0.003
15/07/2022,06:20:25,0.135,0.0,0.088,0.002
15/07/2022,06:21:25,0.138,0.0,0.09,0.002
15/07/2022,06:22:25,0.141,0.0,0.093,0.003
15/07/2022,06:23:25,0.144,0.0,0.095,0.002
15/07/2022,06:24:26,0.147,0.0,0.097,0.002
15/07/2022,06:25:33,0.151,0.0,0.1,0.003
15/07/2022,06:26:24,0.153,0.0,0.102,0.002
15/07/2022,06:27:25,0.156,0.0,0.105,0.003
15/07/2022,06:28:33,0.157,0.0,0.108,0.003
15/07/2022,06:30:26,0.164,0.0,0.113,0.005
15/07/2022,06:31:25,0.168,0.0,0.116,0.003
15/07/2022,06:32:25,0.169,0.0,0.118,0.002
15/07/2022,06:33:25,0.172,0.0,0.121,0.003
15/07/2022,06:34:26,0.176,0.0,0.124,0.003
15/07/2022,06:35:33,0.179,0.0,0.128,0.004
15/07/2022,06:36:25,0.182,0.0,0.13,0.002
15/07/2022,06:37:26,0.185,0.0,0.133,0.003
15/07/2022,06:38:25,0.189,0.0,0.136,0.003
15/07/2022,06:39:25,0.193,0.0,0.139,0.003
15/07/2022,06:40:26,0.196,0.0,0.143,0.004
15/07/2022,06:41:25,0.201,0.0,0.146,0.003
15/07/2022,06:42:25,0.203,0.0,0.149,0.003
15/07/2022,06:43:25,0.207,0.0,0.152,0.003
15/07/2022,06:44:25,0.211,0.0,0.156,0.004
15/07/2022,06:45:26,0.215,0.0,0.16,0.004
15/07/2022,06:46:25,0.219,1.0,0.163,0.003
15/07/2022,06:47:25,0.222,1.0,0.167,0.004
15/07/2022,06:48:25,0.226,1.0,0.171,0.004
15/07/2022,06:49:25,0.229,1.0,0.174,0.003
15/07/2022,06:50:25,0.234,1.0,0.178,0.004
15/07/2022,06:51:34,0.238,1.0,0.183,0.005
15/07/2022,06:52:25,0.241,1.0,0.186,0.003
15/07/2022,06:53:25,0.245,1.0,0.19,0.004
15/07/2022,06:54:25,0.250,1.0,0.194,0.004
15/07/2022,06:55:26,0.254,1.0,0.199,0.005
15/07/2022,06:56:25,0.258,1.0,0.203,0.004
15/07/2022,06:57:25,0.262,1.0,0.207,0.004
15/07/2022,06:58:25,0.267,1.0,0.212,0.005
15/07/2022,06:59:25,0.272,1.0,0.216,0.004
15/07/2022,07:00:26,0.275,1.0,0.221,0.005
15/07/2022,07:01:26,0.280,1.0,0.225,0.004
15/07/2022,07:02:25,0.283,1.0,0.23,0.005
15/07/2022,07:03:25,0.287,1.0,0.235,0.005
15/07/2022,07:04:34,0.294,1.0,0.24,0.005
15/07/2022,07:05:25,0.298,1.0,0.244,0.004
15/07/2022,07:06:34,0.303,1.0,0.25,0.006
15/07/2022,07:07:25,0.307,1.0,0.254,0.004
15/07/2022,07:08:25,0.313,1.0,0.26,0.006
15/07/2022,07:09:25,0.317,1.0,0.265,0.005
15/07/2022,07:10:26,0.322,1.0,0.27,0.005
15/07/2022,07:11:26,0.327,1.0,0.276,0.006
15/07/2022,07:12:25,0.331,1.0,0.281,0.005
15/07/2022,07:13:25,0.337,1.0,0.287,0.006
15/07/2022,07:14:26,0.342,1.0,0.293,0.006
15/07/2022,07:15:25,0.347,1.0,0.298,0.005
15/07/2022,07:16:25,0.282,1.0,0.303,0.005
15/07/2022,07:17:25,0.278,1.0,0.307,0.004
15/07/2022,07:18:26,0.363,1.0,0.313,0.006
15/07/2022,07:19:25,0.368,1.0,0.319,0.006
15/07/2022,07:20:26,0.375,1.0,0.325,0.006
15/07/2022,07:21:25,0.381,1.0,0.331,0.006
15/07/2022,07:22:33,0.387,1.0,0.339,0.008
15/07/2022,07:23:25,0.391,1.0,0.344,0.005
15/07/2022,07:24:25,0.396,1.0,0.351,0.007
15/07/2022,07:25:25,0.400,1.0,0.357,0.006
15/07/2022,07:26:26,0.391,1.0,0.364,0.007
15/07/2022,07:27:26,0.392,1.0,0.371,0.007
15/07/2022,07:28:26,0.396,1.0,0.377,0.006
15/07/2022,07:29:26,0.407,1.0,0.384,0.007
15/07/2022,07:30:25,0.394,1.0,0.391,0.007
15/07/2022,07:31:26,0.409,1.0,0.397,0.006
15/07/2022,07:32:33,0.448,1.0,0.405,0.008
15/07/2022,07:34:26,0.449,1.0,0.419,0.014
15/07/2022,07:35:25,0.471,1.0,0.427,0.008
15/07/2022,07:36:25,0.475,1.0,0.435,0.008
15/07/2022,07:37:25,0.481,1.0,0.443,0.008
15/07/2022,07:38:25,0.473,1.0,0.451,0.008
15/07/2022,07:39:25,0.460,1.0,0.459,0.008
15/07/2022,07:40:26,0.470,1.0,0.466,0.007
15/07/2022,07:41:25,0.488,1.0,0.474,0.008
15/07/2022,07:42:33,0.507,1.0,0.484,0.01
15/07/2022,07:43:25,0.513,1.0,0.491,0.007
15/07/2022,07:44:26,0.502,1.0,0.5,0.009
15/07/2022,07:45:25,0.507,1.0,0.508,0.008
15/07/2022,07:46:26,0.521,1.0,0.517,0.009
15/07/2022,07:47:25,0.526,1.0,0.525,0.008
15/07/2022,07:48:25,0.515,1.0,0.534,0.009
15/07/2022,07:49:25,0.500,1.0,0.543,0.009
15/07/2022,07:50:25,0.506,1.0,0.551,0.008
15/07/2022,07:51:25,0.528,1.0,0.56,0.009
15/07/2022,07:52:26,0.537,1.0,0.568,0.008
15/07/2022,07:53:25,0.551,1.0,0.577,0.009
15/07/2022,07:54:25,0.549,1.0,0.586,0.009
15/07/2022,07:55:25,0.553,1.0,0.596,0.01
15/07/2022,07:56:26,0.565,1.0,0.605,0.009
15/07/2022,07:57:25,0.558,1.0,0.614,0.009
15/07/2022,07:58:25,0.567,1.0,0.624,0.01
15/07/2022,07:59:25,0.578,1.0,0.634,0.01
15/07/2022,08:00:25,0.588,1.0,0.643,0.009
15/07/2022,08:01:25,0.600,1.0,0.653,0.01
15/07/2022,08:02:25,0.609,1.0,0.663,0.01
15/07/2022,08:03:26,0.598,1.0,0.673,0.01
15/07/2022,08:04:25,0.586,1.0,0.683,0.01
15/07/2022,08:05:25,0.597,1.0,0.693,0.01
15/07/2022,08:06:25,0.643,1.0,0.703,0.01
15/07/2022,08:07:25,0.657,2.0,0.714,0.011
15/07/2022,08:08:25,0.669,2.0,0.725,0.011
15/07/2022,08:09:25,0.683,2.0,0.737,0.012
15/07/2022,08:10:25,0.694,2.0,0.748,0.011
15/07/2022,08:11:26,0.699,2.0,0.76,0.012
15/07/2022,08:12:25,0.699,2.0,0.771,0.011
15/07/2022,08:13:33,0.694,2.0,0.784,0.013
15/07/2022,08:14:25,0.702,2.0,0.795,0.011
15/07/2022,08:15:25,0.703,2.0,0.806,0.011
15/07/2022,08:16:33,0.701,2.0,0.82,0.014
15/07/2022,08:17:25,0.726,2.0,0.829,0.009
15/07/2022,08:18:25,0.744,2.0,0.842,0.013
15/07/2022,08:19:25,0.764,2.0,0.855,0.013
15/07/2022,08:20:26,0.779,2.0,0.868,0.013
15/07/2022,08:21:25,0.788,2.0,0.88,0.012
15/07/2022,08:22:25,0.796,2.0,0.894,0.014
15/07/2022,08:23:26,0.803,2.0,0.907,0.013
15/07/2022,08:24:25,0.813,2.0,0.92,0.013
15/07/2022,08:25:26,0.818,2.0,0.934,0.014
15/07/2022,08:26:25,0.830,2.0,0.948,0.014
15/07/2022,08:27:25,0.837,2.0,0.962,0.014
15/07/2022,08:28:25,0.845,2.0,0.975,0.013
15/07/2022,08:29:33,0.851,2.0,0.992,0.017
15/07/2022,08:30:25,0.859,2.0,1.004,0.012
15/07/2022,08:31:26,0.868,2.0,1.019,0.015
15/07/2022,08:32:25,0.873,2.0,1.033,0.014
15/07/2022,08:33:26,0.874,2.0,1.048,0.015
15/07/2022,08:34:25,0.872,2.0,1.062,0.014
15/07/2022,08:35:26,0.894,2.0,1.077,0.015
15/07/2022,08:36:26,0.909,2.0,1.092,0.015
15/07/2022,08:37:25,0.918,2.0,1.107,0.015
15/07/2022,08:38:26,0.923,2.0,1.123,0.016
15/07/2022,08:39:25,0.933,2.0,1.138,0.015
15/07/2022,08:40:25,0.943,2.0,1.153,0.015
15/07/2022,08:41:25,0.952,2.0,1.17,0.017
15/07/2022,08:42:26,0.958,2.0,1.185,0.015
15/07/2022,08:43:25,0.968,2.0,1.202,0.017
15/07/2022,08:44:34,0.980,2.0,1.22,0.018
15/07/2022,08:45:24,0.983,2.0,1.234,0.014
15/07/2022,08:46:25,0.992,2.0,1.25,0.016
15/07/2022,08:47:25,0.999,2.0,1.267,0.017
15/07/2022,08:48:26,1.005,2.0,1.284,0.017
15/07/2022,08:49:25,1.017,2.0,1.3,0.016
15/07/2022,08:50:25,1.024,2.0,1.317,0.017
15/07/2022,08:51:25,1.033,2.0,1.335,0.018
15/07/2022,08:52:25,1.040,2.0,1.352,0.017
15/07/2022,08:53:26,1.048,2.0,1.37,0.018
15/07/2022,08:54:26,1.056,2.0,1.387,0.017
15/07/2022,08:55:25,1.062,2.0,1.405,0.018
15/07/2022,08:56:25,1.070,2.0,1.422,0.017
15/07/2022,08:57:25,1.082,2.0,1.44,0.018
15/07/2022,08:58:25,1.088,3.0,1.459,0.019
15/07/2022,08:59:25,1.097,3.0,1.477,0.018
15/07/2022,09:00:26,1.109,3.0,1.495,0.018
15/07/2022,09:01:26,1.117,3.0,1.514,0.019
15/07/2022,09:02:26,1.124,3.0,1.532,0.018
15/07/2022,09:03:25,1.131,3.0,1.551,0.019
15/07/2022,09:04:25,1.138,3.0,1.569,0.018
15/07/2022,09:05:25,1.144,3.0,1.588,0.019
15/07/2022,09:06:34,1.159,3.0,1.611,0.023
15/07/2022,09:08:26,1.174,3.0,1.647,0.036
15/07/2022,09:09:25,1.184,3.0,1.667,0.02
15/07/2022,09:10:25,1.194,3.0,1.686,0.019
15/07/2022,09:11:25,1.203,3.0,1.707,0.021
15/07/2022,09:12:25,1.211,3.0,1.727,0.02
15/07/2022,09:13:26,1.220,3.0,1.747,0.02
15/07/2022,09:14:25,1.231,3.0,1.767,0.02
15/07/2022,09:15:25,1.240,3.0,1.787,0.02
15/07/2022,09:16:25,1.248,3.0,1.809,0.022
15/07/2022,09:17:25,1.258,3.0,1.83,0.021
15/07/2022,09:18:25,1.267,3.0,1.851,0.021
15/07/2022,09:19:26,1.268,3.0,1.872,0.021
15/07/2022,09:20:25,1.278,3.0,1.892,0.02
15/07/2022,09:21:34,1.295,3.0,1.917,0.025
15/07/2022,09:22:25,1.304,3.0,1.936,0.019
15/07/2022,09:23:26,1.312,3.0,1.958,0.022
15/07/2022,09:24:25,1.321,3.0,1.979,0.021
15/07/2022,09:25:26,1.330,3.0,2.002,0.023
15/07/2022,09:26:25,1.339,3.0,2.024,0.022
15/07/2022,09:27:33,1.348,3.0,2.05,0.026
15/07/2022,09:28:25,1.358,3.0,2.069,0.019
15/07/2022,09:29:27,1.363,3.0,2.093,0.024
15/07/2022,09:30:24,1.368,3.0,2.114,0.021
15/07/2022,09:31:26,1.389,3.0,2.138,0.024
15/07/2022,09:32:25,1.397,3.0,2.161,0.023
15/07/2022,09:33:25,1.369,3.0,2.184,0.023
15/07/2022,09:34:25,1.417,3.0,2.208,0.024
15/07/2022,09:35:25,1.421,3.0,2.231,0.023
15/07/2022,09:36:26,1.428,3.0,2.255,0.024
15/07/2022,09:37:33,1.422,3.0,2.282,0.027
15/07/2022,09:39:26,1.458,3.0,2.324,0.042
15/07/2022,09:40:26,1.457,3.0,2.348,0.024
15/07/2022,09:41:26,1.469,3.0,2.373,0.025
15/07/2022,09:42:25,1.484,3.0,2.397,0.024
15/07/2022,09:43:26,1.490,3.0,2.422,0.025
15/07/2022,09:44:25,1.502,3.0,2.447,0.025
15/07/2022,09:45:25,1.507,3.0,2.471,0.024
15/07/2022,09:46:25,1.503,3.0,2.497,0.026
15/07/2022,09:47:26,1.524,4.0,2.523,0.026
15/07/2022,09:48:26,1.536,4.0,2.548,0.025
15/07/2022,09:49:26,1.543,4.0,2.574,0.026
15/07/2022,09:50:25,1.544,4.0,2.599,0.025
15/07/2022,09:51:26,1.567,4.0,2.625,0.026
15/07/2022,09:52:33,1.574,4.0,2.655,0.03
15/07/2022,09:53:26,1.565,4.0,2.678,0.023
15/07/2022,09:54:26,1.578,4.0,2.704,0.026
15/07/2022,09:55:25,1.595,4.0,2.729,0.025
15/07/2022,09:56:25,1.604,4.0,2.756,0.027
15/07/2022,09:57:25,1.616,4.0,2.784,0.028
15/07/2022,09:58:34,1.632,4.0,2.815,0.031
15/07/2022,09:59:25,1.644,4.0,2.838,0.023
15/07/2022,10:00:26,1.657,4.0,2.866,0.028
15/07/2022,10:01:25,1.674,4.0,2.893,0.027
15/07/2022,10:02:25,1.692,4.0,2.922,0.029
15/07/2022,10:03:25,1.704,4.0,2.95,0.028
15/07/2022,10:04:26,1.704,4.0,2.978,0.028
15/07/2022,10:05:26,1.512,3.0,3.004,0.026
15/07/2022,10:06:27,1.557,4.0,3.03,0.026
15/07/2022,10:07:26,1.491,3.0,3.055,0.025
15/07/2022,10:08:34,1.346,3.0,3.082,0.027
15/07/2022,10:10:26,1.588,4.0,3.129,0.047
15/07/2022,10:11:25,1.717,4.0,3.157,0.028
15/07/2022,10:12:25,1.650,4.0,3.186,0.029
15/07/2022,10:13:26,1.655,4.0,3.214,0.028
15/07/2022,10:14:26,1.580,4.0,3.24,0.026
15/07/2022,10:15:25,1.647,4.0,3.267,0.027
15/07/2022,10:16:25,1.616,4.0,3.294,0.027
15/07/2022,10:17:25,1.653,4.0,3.321,0.027
15/07/2022,10:18:25,1.685,4.0,3.349,0.028
15/07/2022,10:19:25,1.746,4.0,3.378,0.029
15/07/2022,10:20:25,1.792,4.0,3.407,0.029
15/07/2022,10:21:25,1.724,4.0,3.436,0.029
15/07/2022,10:22:25,1.680,4.0,3.464,0.028
15/07/2022,10:23:34,1.748,4.0,3.497,0.033
15/07/2022,10:24:25,1.781,4.0,3.523,0.026
15/07/2022,10:25:26,1.828,4.0,3.553,0.03
15/07/2022,10:26:33,1.841,4.0,3.587,0.034
15/07/2022,10:27:26,1.782,4.0,3.614,0.027
15/07/2022,10:28:25,1.684,4.0,3.642,0.028
15/07/2022,10:29:33,1.610,4.0,3.675,0.033
15/07/2022,10:30:25,1.822,4.0,3.7,0.025
15/07/2022,10:31:25,1.856,4.0,3.731,0.031
15/07/2022,10:32:26,1.889,4.0,3.762,0.031
15/07/2022,10:33:25,1.929,4.0,3.794,0.032
15/07/2022,10:34:25,1.933,4.0,3.826,0.032
15/07/2022,10:35:25,1.917,4.0,3.859,0.033
15/07/2022,10:36:25,1.888,4.0,3.891,0.032
15/07/2022,10:37:26,1.896,4.0,3.922,0.031
15/07/2022,10:38:25,1.860,4.0,3.953,0.031
15/07/2022,10:39:26,1.853,4.0,3.984,0.031
15/07/2022,10:40:26,1.836,4.0,4.015,0.031
15/07/2022,10:41:26,1.979,5.0,4.047,0.032
15/07/2022,10:42:25,1.958,5.0,4.08,0.033
15/07/2022,10:43:25,1.924,4.0,4.112,0.032
15/07/2022,10:44:26,1.977,5.0,4.145,0.033
15/07/2022,10:45:34,2.029,5.0,4.183,0.038
15/07/2022,10:46:25,2.043,5.0,4.212,0.029
15/07/2022,10:47:34,1.990,5.0,4.25,0.038
15/07/2022,10:48:25,1.991,5.0,4.279,0.029
15/07/2022,10:49:25,1.993,5.0,4.312,0.033
15/07/2022,10:50:26,1.995,5.0,4.345,0.033
15/07/2022,10:51:26,1.969,5.0,4.379,0.034
15/07/2022,10:52:26,1.925,4.0,4.411,0.032
15/07/2022,10:53:25,1.930,4.0,4.443,0.032
15/07/2022,10:54:26,1.904,4.0,4.475,0.032
15/07/2022,10:55:26,1.917,4.0,4.506,0.031
15/07/2022,10:56:26,1.911,4.0,4.539,0.033
15/07/2022,10:57:25,2.098,5.0,4.572,0.033